Craig, CO

10:40 AM MST on January 24, 2017 (GMT -0700)
Craig-Moffat

Weather History for KCAG - May, 2013

Change the Weather History Date:

Friday, May 31, 2013

  Actual Average Record
Temperature  
Mean Temperature 49 °F 55 °F  
Max Temperature 66 °F 72 °F 91 °F (2002)
Min Temperature 31 °F 38 °F 28 °F (2006)
Degree Days  
Heating Degree Days 16 10  
Month to date heating degree days 365 446  
Since 1 July heating degree days 8499 8459  
Cooling Degree Days 0 0  
Month to date cooling degree days 0 0  
Year to date cooling degree days 0 0  
Moisture  
Dew Point 24 °F    
Average Humidity 49    
Maximum Humidity 82    
Minimum Humidity 16    
Precipitation  
Precipitation 0.00 in 0.05 in 0.06 in (2014)
Month to date precipitation 1.31 1.54  
Year to date precipitation 5.25 6.19  
Sea Level Pressure  
Sea Level Pressure 30.00 in    
Wind  
Wind Speed 12 mph (West)    
Max Wind Speed 28 mph    
Max Gust Speed 35 mph    
Visibility 10 miles    
Events      
T = Trace of Precipitation, MM = Missing Value Source: NWS Daily Summary

Daily Weather History Graph

Daily Weather History Graph

Search for Another Location

Airport or City:

Trip Planner

Search our weather history database for the weather conditions in past years. The results will help you decide how hot, cold, wet, or windy it might be!

Date:

Astronomy

May. 31, 2013 Rise Set
Actual Time 5:42 AM MDT 8:33 PM MDT
Civil Twilight 5:09 AM MDT 9:06 PM MDT
Nautical Twilight 4:28 AM MDT 9:47 PM MDT
Astronomical Twilight 3:41 AM MDT 10:34 PM MDT
Moon 1:09 AM MDT (5/31) 1:01 PM MDT (5/31)
Length of Visible Light 15h 56m
Length of Day
14h 51m
Waning Gibbous, 51% of the Moon is Illuminated
May 31
Waning Gibbous
May 31
Last Quarter
Jun 8
New
Jun 16
First Quarter
Jun 23
Full

Hourly Weather History & Observations

Time (MDT) Temp. Windchill Dew Point Humidity Pressure Visibility Wind Dir Wind Speed Gust Speed Precip Events Conditions
12:53 AM 42.1 °F 39.2 °F 27.0 °F 55% 29.91 in 10.0 mi West 4.6 mph - N/A   Clear
1:53 AM 37.9 °F 35.5 °F 28.9 °F 70% 29.93 in 10.0 mi SSW 3.5 mph - N/A   Clear
2:53 AM 36.0 °F 33.3 °F 28.0 °F 73% 29.91 in 10.0 mi SW 3.5 mph - N/A   Clear
3:53 AM 35.1 °F - 28.9 °F 78% 29.94 in 10.0 mi Calm Calm - N/A   Clear
4:53 AM 33.1 °F 30.0 °F 28.9 °F 85% 29.96 in 10.0 mi SSE 3.5 mph - N/A   Clear
5:53 AM 32.0 °F - 27.0 °F 82% 29.99 in 10.0 mi Calm Calm - N/A   Clear
6:53 AM 36.0 °F 30.3 °F 30.9 °F 82% 30.00 in 10.0 mi NE 6.9 mph - N/A   Clear
7:53 AM 45.0 °F - 30.0 °F 56% 29.98 in 10.0 mi Calm Calm - N/A   Clear
8:53 AM 53.1 °F - 21.9 °F 30% 29.96 in 10.0 mi West 21.9 mph 27.6 mph N/A   Partly Cloudy
9:53 AM 55.0 °F - 24.1 °F 30% 29.98 in 10.0 mi West 18.4 mph 28.8 mph N/A   Clear
10:53 AM 55.9 °F - 21.9 °F 27% 29.99 in 10.0 mi West 18.4 mph 28.8 mph N/A   Partly Cloudy
11:53 AM 59.0 °F - 19.0 °F 21% 30.00 in 10.0 mi West 20.7 mph 26.5 mph N/A   Clear
12:53 PM 62.1 °F - 19.0 °F 19% 29.99 in 10.0 mi West 21.9 mph 31.1 mph N/A   Partly Cloudy
1:53 PM 61.0 °F - 19.0 °F 20% 30.00 in 10.0 mi WNW 17.3 mph 28.8 mph N/A   Scattered Clouds
2:53 PM 64.0 °F - 19.9 °F 18% 30.00 in 10.0 mi West 17.3 mph 26.5 mph N/A   Mostly Cloudy
3:53 PM 64.9 °F - 19.0 °F 17% 30.00 in 10.0 mi NW 23.0 mph 29.9 mph N/A   Scattered Clouds
4:53 PM 64.0 °F - 18.0 °F 17% 30.00 in 10.0 mi WNW 18.4 mph 28.8 mph N/A   Scattered Clouds
5:53 PM 64.0 °F - 19.0 °F 18% 30.02 in 10.0 mi West 16.1 mph 25.3 mph N/A   Partly Cloudy
6:53 PM 62.1 °F - 18.0 °F 18% 30.01 in 10.0 mi WNW 15.0 mph 24.2 mph N/A   Clear
7:53 PM 59.0 °F - 19.0 °F 21% 30.01 in 10.0 mi WNW 13.8 mph 19.6 mph N/A   Clear
8:53 PM 51.1 °F - 25.0 °F 36% 30.03 in 10.0 mi West 5.8 mph - N/A   Clear
9:53 PM 46.9 °F - 26.1 °F 44% 30.07 in 10.0 mi WSW 6.9 mph - N/A   Clear
10:53 PM 45.0 °F 39.3 °F 27.0 °F 49% 30.10 in 10.0 mi SW 11.5 mph - N/A   Clear
11:53 PM 46.0 °F 40.6 °F 25.0 °F 44% 30.11 in 10.0 mi SW 11.5 mph - N/A   Clear